Location: Stara Lesna
(49.1528°N, 20.2911°E)
Time: 01:41:04
(UTC+02:00)

ATLAS 3B R/B - Pass Details

Date: 21 September 2019
Orbit: 1028 x 1166 km, 63.8° (Epoch: 07 October)

Event Time Altitude Azimuth Distance (km) Brightness Sun altitude
Exits shadow 02:33:52 32° 116° (ESE) 1,716 3.8 -33.5°
Maximum altitude 02:33:55 32° 115° (ESE) 1,716 3.8 -33.5°
Drops below altitude 10° 02:39:38 10° 55° (NE) 2,833 5.7 -32.9°
Sets 02:42:31 0° 46° (NE) 3,787 6.7 -32.6°
